Location: Unspecified
(40.9447°N, 78.9903°W)
Time: 05:26:46
(UTC-05:00)

ISS - Visible Passes

Search period start: 12 November 2019 00:00
Search period end: 22 November 2019 00:00
Orbit: 412 x 421 km, 51.6° (Epoch: 12 November)

Date Brightness Start Highest point End Pass type
(mag) Time Alt. Az. Time Alt. Az. Time Alt. Az.
12 Nov -3.8 05:13:19 71° S 05:13:19 71° S 05:16:30 10° SE visible
13 Nov -0.8 04:27:21 16° ESE 04:27:21 16° ESE 04:28:07 10° ESE visible
13 Nov -1.7 06:00:17 14° WSW 06:01:09 15° SW 06:03:06 10° SSW visible
14 Nov -1.7 05:14:23 19° S 05:14:23 19° S 05:15:46 10° SSE visible
19 Nov -0.6 19:26:33 10° SW 19:26:39 11° SW 19:26:39 11° SW visible
20 Nov -2.4 18:38:26 10° SSW 18:40:37 28° SSE 18:40:37 28° SSE visible
21 Nov -2.0 17:50:42 10° S 17:53:10 19° SE 17:54:28 16° ESE visible
21 Nov -0.9 19:26:23 10° WSW 19:27:23 18° WSW 19:27:23 18° WSW visible
